Kingsville NAS, TX

10:29 AM CDT on April 27, 2017 (GMT -0500)
Kingsville Naval Air Station

Weather History for KNQI - January, 2013

Change the Weather History Date:

Friday, January 11, 2013

  Actual Average Record
Temperature  
Mean Temperature 64 °F -  
Max Temperature 81 °F 66 °F 86 °F (2000)
Min Temperature 46 °F 46 °F 36 °F (2012)
Degree Days  
Heating Degree Days 2    
Growing Degree Days 14 (Base 50)    
Moisture  
Dew Point 58 °F    
Average Humidity 93    
Maximum Humidity 100    
Minimum Humidity 58    
Precipitation  
Precipitation 0.00 in - - ()
Sea Level Pressure  
Sea Level Pressure 29.92 in    
Wind  
Wind Speed 5 mph (SE)    
Max Wind Speed 20 mph    
Max Gust Speed 24 mph    
Visibility 6 miles    
Events Fog    
Averages and records for this station are not official NWS values.
T = Trace of Precipitation, MM = Missing Value Source: NWS Daily Summary

Daily Weather History Graph

Daily Weather History Graph

Search for Another Location

Airport or City:

Trip Planner

Search our weather history database for the weather conditions in past years. The results will help you decide how hot, cold, wet, or windy it might be!

Date:

Astronomy

Jan. 11, 2013 Rise Set
Actual Time 7:23 AM CST 5:55 PM CST
Civil Twilight 6:57 AM CST 6:21 PM CST
Nautical Twilight 6:29 AM CST 6:49 PM CST
Astronomical Twilight 6:00 AM CST 7:18 PM CST
Moon 7:00 AM CST (1/11) 6:10 PM CST (1/11)
Length of Visible Light 11h 23m
Length of Day
10h 32m
Waning Crescent, 0% of the Moon is Illuminated
Jan 11
Waning Crescent
Jan 11
New
Jan 18
First Quarter
Jan 26
Full
Feb 3
Last Quarter

Hourly Weather History & Observations

Time (CST) Temp. Windchill Dew Point Humidity Pressure Visibility Wind Dir Wind Speed Gust Speed Precip Events Conditions
12:56 AM 50.0 °F - 48.9 °F 96% 30.03 in 10.0 mi South 4.6 mph - N/A   Clear
1:56 AM 48.9 °F - 48.0 °F 97% 30.02 in 10.0 mi South 4.6 mph - N/A   Clear
2:56 AM 50.0 °F - 48.9 °F 96% 30.01 in 10.0 mi South 5.8 mph - N/A   Clear
3:56 AM 51.1 °F - 50.0 °F 96% 29.99 in 9.0 mi Calm Calm - N/A   Clear
4:56 AM 50.0 °F - 48.9 °F 96% 29.96 in 6.0 mi Calm Calm - N/A   Clear
5:04 AM 48.2 °F - 48.2 °F 100% 29.97 in 1.5 mi Calm Calm - N/A   Clear
5:12 AM 48.2 °F - 48.2 °F 100% 29.97 in 0.5 mi Calm Calm - N/A Fog Fog
5:19 AM 48.2 °F - 48.2 °F 100% 29.97 in 0.5 mi Calm Calm - N/A Fog Fog
5:47 AM 46.4 °F - 46.4 °F 100% 29.97 in 1.0 mi Calm Calm - N/A   Mist
5:56 AM 46.9 °F - 46.9 °F 100% 29.96 in 1.8 mi Calm Calm - N/A   Partly Cloudy
6:03 AM 46.4 °F - 46.4 °F 100% 29.97 in 0.5 mi Calm Calm - N/A Fog Fog
6:11 AM 46.4 °F - 46.4 °F 100% 29.97 in 0.2 mi Calm Calm - N/A Fog Fog
6:18 AM 46.4 °F - 46.4 °F 100% 29.97 in 0.5 mi Calm Calm - N/A Fog Fog
6:30 AM 46.4 °F 44.3 °F 46.4 °F 100% 29.97 in 0.5 mi ENE 4.6 mph - N/A Fog Fog
6:35 AM 46.4 °F 45.2 °F 46.4 °F 100% 29.97 in 0.5 mi ENE 3.5 mph - N/A Fog Fog
6:54 AM 46.4 °F - 46.4 °F 100% 29.98 in 0.2 mi Calm Calm - N/A Fog Fog
6:56 AM 46.9 °F - 46.9 °F 100% 29.97 in 0.2 mi Calm Calm - N/A Fog Fog
7:12 AM 46.4 °F - 46.4 °F 100% 29.97 in 0.1 mi Calm Calm - N/A Fog Fog
7:56 AM 48.0 °F - 48.0 °F 100% 29.96 in 0.1 mi Calm Calm - N/A Fog Fog
8:18 AM 50.0 °F - 50.0 °F 100% 29.97 in 0.1 mi Calm Calm - N/A Fog Fog
8:56 AM 55.0 °F - 55.0 °F 100% 29.96 in 0.2 mi Calm Calm - N/A Fog Fog
9:00 AM 55.4 °F - 55.4 °F 100% 29.97 in 1.0 mi Calm Calm - N/A   Mostly Cloudy
9:11 AM 57.2 °F - 57.2 °F 100% 29.97 in 1.5 mi Calm Calm - N/A   Mostly Cloudy
9:18 AM 57.2 °F - 57.2 °F 100% 29.98 in 2.5 mi Calm Calm - N/A   Mostly Cloudy
9:34 AM 59.0 °F - 59.0 °F 100% 29.97 in 4.0 mi Calm Calm - N/A   Mostly Cloudy
9:56 AM 62.1 °F - 62.1 °F 100% 29.95 in 10.0 mi Calm Calm - N/A   Mostly Cloudy
10:56 AM 71.1 °F - 64.9 °F 81% 29.94 in 10.0 mi SSE 10.4 mph - N/A   Mostly Cloudy
11:56 AM 77.0 °F - 64.9 °F 66% 29.90 in 10.0 mi SSE 13.8 mph - N/A   Mostly Cloudy
12:56 PM 81.0 °F - 64.9 °F 58% 29.85 in 10.0 mi SSE 19.6 mph 24.2 mph N/A   Mostly Cloudy
1:56 PM 81.3 °F - 66.9 °F 61% 29.83 in 10.0 mi SSE 16.1 mph - N/A   Mostly Cloudy
2:56 PM 77.0 °F - 68.0 °F 74% 29.81 in 10.0 mi SE 16.1 mph 21.9 mph N/A   Mostly Cloudy
3:56 PM 77.0 °F - 68.0 °F 74% 29.81 in 10.0 mi SE 17.3 mph 23.0 mph N/A   Mostly Cloudy
4:56 PM 73.9 °F - 68.0 °F 82% 29.80 in 10.0 mi ESE 15.0 mph - N/A   Mostly Cloudy
5:56 PM 72.0 °F - 68.0 °F 87% 29.81 in 10.0 mi ESE 10.4 mph - N/A   Clear
6:56 PM 70.0 °F - 68.0 °F 93% 29.80 in 10.0 mi SE 12.7 mph - N/A   Clear
7:29 PM 69.8 °F - 68.0 °F 94% 29.82 in 9.0 mi SE 12.7 mph 21.9 mph N/A   Scattered Clouds
7:38 PM 69.8 °F - 68.0 °F 94% 29.82 in 9.0 mi SE 15.0 mph - N/A   Mostly Cloudy
7:56 PM 70.0 °F - 68.0 °F 93% 29.82 in 9.0 mi SE 11.5 mph - N/A   Overcast
8:56 PM 70.0 °F - 69.1 °F 97% 29.82 in 9.0 mi SSE 12.7 mph - N/A   Overcast
9:44 PM 71.6 °F - 69.8 °F 94% 29.85 in 10.0 mi South 9.2 mph - N/A   Overcast
9:56 PM 71.1 °F - 69.1 °F 93% 29.84 in 10.0 mi SSE 12.7 mph - N/A   Overcast
10:33 PM 71.6 °F - 69.8 °F 94% 29.85 in 10.0 mi SSE 12.7 mph - N/A   Overcast
10:56 PM 71.1 °F - 69.1 °F 93% 29.84 in 9.0 mi SSE 10.4 mph - N/A   Overcast
11:18 PM 71.6 °F - 69.8 °F 94% 29.84 in 9.0 mi SSE 11.5 mph - N/A   Overcast
11:56 PM 72.0 °F - 69.1 °F 91% 29.83 in 9.0 mi SSE 11.5 mph - N/A   Overcast